This demonstration page uses our WeatherBlox Daily Observations layout. Learn more.

Left ArrowRight Arrow

39.51506, -84.39828

Hourly Observations for May 7, 2015

Temp ( °F °C ) Dew Point ( °F °C ) Humidity (%) Winds ( mph kmh ) Pressure ( in mb ) Visibility ( mi km ) Precip ( " mm )
12:15 am 00:15 Clear 62 16.9 57 13.8 82 82 NNE 3 6 30.12 1020 10 16 0.00 0.00
12:35 am 00:35 Clear 62 16.6 56 13.6 83 83 Calm 30.12 1020 10 16 0.00 0.00
12:55 am 00:55 Clear 61 16.1 56 13.1 83 83 N 5 7 30.15 1021 10 16 0.00 0.00
1:15 am 01:15 Clear 61 15.9 56 13.1 84 84 Calm 30.15 1021 10 16 0.00 0.00
1:35 am 01:35 Clear 60 15.5 55 13 85 85 Calm 30.15 1021 10 16 0.00 0.00
1:55 am 01:55 Clear 61 16 56 13.1 83 83 Calm 30.15 1021 10 16 0.00 0.00
2:15 am 02:15 Clear 60 15.3 55 12.9 86 86 Calm 30.15 1021 10 16 0.00 0.00
2:35 am 02:35 Clear 60 15.3 55 12.8 85 85 Calm 30.12 1020 10 16 0.00 0.00
2:55 am 02:55 Clear 60 15.3 55 12.8 85 85 Calm 30.12 1020 10 16 0.00 0.00
3:15 am 03:15 Clear 60 15.3 55 13 86 86 Calm 30.12 1020 10 16 0.00 0.00
3:35 am 03:35 Clear 60 15.3 55 13 86 86 Calm 30.12 1020 10 16 0.00 0.00
3:55 am 03:55 Clear 60 15.3 55 13 86 86 Calm 30.12 1020 10 16 0.00 0.00
4:15 am 04:15 Clear 60 15.3 55 13 86 86 Calm 30.12 1020 10 16 0.00 0.00
4:35 am 04:35 Clear 60 15.3 55 13 86 86 Calm 30.12 1020 10 16 0.00 0.00
4:55 am 04:55 Clear 60 15.3 55 13 86 86 ENE 3 6 30.12 1020 10 16 0.00 0.00
5:15 am 05:15 Clear 60 15.3 55 13 86 86 Calm 30.12 1020 10 16 0.00 0.00
5:35 am 05:35 Clear 60 15.3 55 13 86 86 Calm 30.12 1020 10 16 0.00 0.00
5:55 am 05:55 Clear 60 15.3 56 13.1 87 87 Calm 30.12 1020 10 16 0.00 0.00
6:15 am 06:15 Clear 58 14.5 54 12.3 87 87 N 3 6 30.12 1020 10 16 0.00 0.00
6:35 am 06:35 Sunny 57 13.8 53 11.8 88 88 Calm 30.12 1020 7 11 0.00 0.00
6:55 am 06:55 Sunny 57 14.1 54 12.1 88 88 Calm 30.15 1021 10 16 0.00 0.00
7:15 am 07:15 Sunny 59 14.9 55 12.8 87 87 Calm 30.15 1021 7 11 0.00 0.00
7:35 am 07:35 Sunny 60 15.3 56 13.1 87 87 Calm 30.15 1021 7 11 0.00 0.00
7:55 am 07:55 Sunny 62 16.4 57 13.8 85 85 Calm 30.15 1021 10 16 0.00 0.00
8:15 am 08:15 Sunny 64 17.5 58 14.4 82 82 Calm 30.12 1020 10 16 0.00 0.00
8:35 am 08:35 Sunny 69 20.8 62 16.6 77 77 NNE 3 6 30.12 1020 10 16 0.00 0.00
8:55 am 08:55 Sunny 69 20.8 58 14.7 68 68 Calm 30.12 1020 10 16 0.00 0.00
9:15 am 09:15 Sunny 71 21.6 59 15 66 66 Calm 30.12 1020 10 16 0.00 0.00
9:35 am 09:35 Sunny 74 23.6 61 16.2 63 63 Calm 30.12 1020 10 16 0.00 0.00
9:55 am 09:55 Sunny 74 23.6 60 15.4 60 60 Calm 30.12 1020 10 16 0.00 0.00
10:15 am 10:15 Sunny 77 25.1 61 16.3 58 58 Calm 30.12 1020 10 16 0.00 0.00
10:35 am 10:35 Sunny 80 26.5 57 14 46 46 S 3 6 30.12 1020 10 16 0.00 0.00
10:55 am 10:55 Sunny 80 26.8 58 14.3 46 46 S 5 7 30.12 1020 10 16 0.00 0.00
11:15 am 11:15 Sunny 82 27.7 57 13.9 43 43 S 3 6 30.12 1020 10 16 0.00 0.00
11:35 am 11:35 Sunny 82 28 56 13.4 41 41 SE 5 7 30.12 1020 10 16 0.00 0.00
11:55 am 11:55 Sunny 83 28.6 56 13.3 39 39 SSE 5 7 30.09 1019 10 16 0.00 0.00
12:15 pm 12:15 Sunny 84 28.9 56 13.5 39 39 S 5 7 30.12 1020 10 16 0.00 0.00
12:35 pm 12:35 Sunny 87 30.7 57 14 36 36 S 8 13 30.06 1018 10 16 0.00 0.00
12:55 pm 12:55 Sunny 87 30.7 55 12.9 34 34 S 7 11 30.06 1018 10 16 0.00 0.00
1:15 pm 13:15 Partly Cloudy 87 30.7 53 11.4 30 30 SSW 6 9 30.06 1018 10 16 0.00 0.00
1:35 pm 13:35 Partly Cloudy 86 30.1 53 11.6 32 32 SSW 12 19 30.06 1018 10 16 0.00 0.00
1:55 pm 13:55 Sunny 90 32.1 51 10.6 27 27 WSW 3 6 30.03 1017 10 16 0.00 0.00
2:15 pm 14:15 Partly Cloudy 90 32.1 52 11 27 27 WSW 8 13 30.03 1017 10 16 0.00 0.00
2:35 pm 14:35 Partly Cloudy 88 30.9 51 10.8 29 29 Calm 30.03 1017 10 16 0.00 0.00
2:55 pm 14:55 Mostly Cloudy 86 29.8 51 10.3 30 30 SW 6 9 30.03 1017 10 16 0.00 0.00
3:15 pm 15:15 Mostly Cloudy 90 32.1 49 9.5 25 25 SSW 5 7 30.03 1017 10 16 0.00 0.00
3:35 pm 15:35 Cloudy 83 28.4 52 10.9 34 34 SW 10 17 30.06 1018 10 16 0.00 0.00
3:55 pm 15:55 Partly Cloudy 86 30.2 52 10.9 30 30 SW 7 11 30.00 1016 10 16 0.00 0.00
4:15 pm 16:15 Partly Cloudy 84 29.1 53 11.6 34 34 SW 10 17 30.00 1016 10 16 0.00 0.00
4:35 pm 16:35 Partly Cloudy 82 28 55 12.7 39 39 WSW 9 15 30.03 1017 10 16 0.00 0.00
4:55 pm 16:55 Partly Cloudy 83 28.2 53 11.9 36 36 WSW 6 9 30.03 1017 10 16 0.00 0.00
5:15 pm 17:15 Sunny 83 28.1 55 13 39 39 SW 3 6 30.03 1017 10 16 0.00 0.00
5:35 pm 17:35 Sunny 85 29.5 52 11.1 32 32 WSW 3 6 30.00 1016 10 16 0.00 0.00
5:55 pm 17:55 Sunny 90 32.1 54 12.3 30 30 WSW 7 11 30.00 1016 10 16 0.00 0.00
6:15 pm 18:15 Sunny 89 31.9 55 12.7 31 31 SW 7 11 29.97 1015 10 16 0.00 0.00
6:35 pm 18:35 Sunny 85 29.3 49 9.6 29 29 SSW 6 9 29.97 1015 10 16 0.00 0.00
6:55 pm 18:55 Sunny 82 28 51 10.7 34 34 SW 5 7 30.00 1016 10 16 0.00 0.00
7:15 pm 19:15 Sunny 83 28.1 52 10.9 34 34 SSW 5 7 30.00 1016 10 16 0.00 0.00
7:35 pm 19:35 Sunny 82 28 51 10.7 34 34 S 5 7 30.00 1016 10 16 0.00 0.00
7:55 pm 19:55 Sunny 82 28 52 10.9 34 34 S 6 9 30.00 1016 10 16 0.00 0.00
8:15 pm 20:15 Sunny 80 26.8 53 11.9 40 40 SSW 3 6 30.00 1016 10 16 0.00 0.00
8:35 pm 20:35 Sunny 76 24.7 59 14.8 54 54 Calm 30.00 1016 10 16 0.00 0.00
8:55 pm 20:55 Clear 74 23.6 62 16.8 66 66 Calm 30.00 1016 10 16 0.00 0.00
9:15 pm 21:15 Clear 71 21.4 60 15.5 69 69 Calm 30.00 1016 10 16 0.00 0.00
9:35 pm 21:35 Clear 69 20.8 60 15.5 72 72 Calm 30.00 1016 10 16 0.00 0.00
9:55 pm 21:55 Clear 69 20.8 60 15.3 71 71 Calm 30.00 1016 10 16 0.00 0.00
10:15 pm 22:15 Clear 69 20.8 60 15.7 73 73 Calm 30.00 1016 10 16 0.00 0.00
10:35 pm 22:35 Clear 67 19.2 59 15.1 77 77 WNW 3 6 30.03 1017 10 16 0.00 0.00
10:55 pm 22:55 Clear 65 18.4 59 15 81 81 Calm 30.03 1017 10 16 0.00 0.00
11:15 pm 23:15 Clear 67 19.5 60 15.6 78 78 Calm 30.03 1017 10 16 0.00 0.00
11:35 pm 23:35 Clear 67 19.5 59 15.2 76 76 Calm 30.03 1017 10 16 0.00 0.00
11:55 pm 23:55 Clear 64 18 58 14.3 79 79 Calm 30.03 1017 10 16 0.00 0.00

Powered by AerisWeather